Location: Lewisville
(33.0462°N, 96.9942°W)
Time: 20:07:46
(UTC-05:00)

Envisat - Pass Details

Date: 30 March 2021
Orbit: 764 x 765 km, 98.2° (Epoch: 25 September)

Event Time Altitude Azimuth Distance (km) Brightness Sun altitude
Rises 06:36:15 0° 17° (NNE) 3,238 6.6 -9.5°
Reaches altitude 10° 06:38:37 10° 21° (NNE) 2,308 5.9 -9.0°
Maximum altitude 06:43:38 59° 100° (E) 880 3.7 -8.0°
Drops below altitude 10° 06:48:37 10° 180° (S) 2,293 5.4 -7.0°
Sets 06:50:56 0° 184° (S) 3,215 6.1 -6.5°
